User: anonymous   Login
Location: Fisheating Creek Campgrounds
(26.9333°N, 81.3167°W)
Time: 00:03:27
(UTC-05:00)
Language:

NATO 3D Rocket - Orbit

View from above orbital plane
View from above orbital plane
View from above satellite
View from above satellite

Ground track
Ground track

The orbit data is extracted from the following two-line orbital elements,

1 15392U 84115B   17022.82072530 +.00000149 +00000-0 -16449-4 0  9991
2 15392 021.4967 255.3966 1034546 276.7358 071.6571 12.45543592448089
Epoch (UTC): 22 January 2017 19:41:50
Eccentricity: 0.1034546
inclination: 21.4967°
perigee height: 670 km
apogee height: 2296 km
right ascension of ascending node: 255.3966°
argument of perigee: 276.7358°
revolutions per day: 12.45543592
mean anomaly at epoch: 71.6571°
orbit number at epoch: 44808

The dashed part of the orbit path shows where the satellite is in the earth's shadow,  

DLR